Location: Catenanuova
(37.5690°N, 14.6870°E)
Time: 12:06:23
(UTC+02:00)

Hubble Space Telescope - Pass Details

Date: 26 May 2024
Orbit: 511 x 514 km, 28.5° (Epoch: 13 June)

Event Time Altitude Azimuth Distance (km) Brightness Sun altitude
Rises 21:45:24 0° 232° (SW) 2,605 4.4 -15.7°
Reaches altitude 10° 21:48:10 10° 213° (SSW) 1,720 3.2 -16.1°
Enters shadow 21:49:40 16° 192° (SSW) 1,396 2.6 -16.3°
